Flag for USA

Past Weather in Olympia, Washington, USA — Yesterday and Last 2 Weeks

Now
52 °F

Sunny.


Feels Like: 52 °F
Forecast: 70 / 53 °F
Wind: 3 mph from Southwest

Location: Olympia Airport

Current Time: Jul 11, 2020 at 8:13:54 am

Latest Report: Jul 11, 2020 at 6:54 am


Visibility: 10 mi

Pressure: 30.11 "Hg

Humidity: 93%

Dew Point: 50 °F

Location of OlympiaLocation

Past Weather in Olympia — Graph

°F

Olympia Temperature Yesterday

Maximum temperature yesterday: 73 °F (at 4:54 pm)
Minimum temperature yesterday: 47 °F (at 5:38 am)
Average temperature yesterday: 59 °F

High & Low Weather Summary for the Past Weeks

 TemperatureHumidityPressure
High80 °F (Jun 26, 1:54 pm)100% (Jul 10, 5:38 am)30.22 "Hg (Jul 10, 5:38 am)
Low44 °F (Jul 4, 4:23 am)44% (Jun 26, 1:54 pm)29.86 "Hg (Jun 28, 3:33 am)
Average59 °F75%30.05 "Hg
* Reported Jun 26 7:15 am — Jul 11 6:54 am, Olympia. Weather by CustomWeather, © 2020

Note: Actual official high and low records may vary slightly from our data, if they occured in-between our weather recording intervals... More about our weather records

Olympia Weather History for the Previous 24 Hours

Scroll right to see more
 ConditionsComfort  
Time TempWeatherWind HumidityBarometerVisibility
6:54 am
Sat, Jul 11
52 °FSunny.3 mph93%30.11 "Hg10 mi
5:54 am48 °FFog.No wind96%30.11 "Hg2 mi
4:54 am49 °FClear.No wind93%30.11 "Hg10 mi
3:54 am49 °FPassing clouds.No wind93%30.10 "Hg10 mi
3:35 am49 °FFog.No wind93%30.11 "Hg1 mi
2:54 am50 °FClear.3 mph96%30.11 "Hg10 mi
1:54 am53 °FClear.No wind89%30.12 "Hg10 mi
12:54 am52 °FClear.No wind89%30.13 "Hg10 mi
11:54 pm
Fri, Jul 10
54 °FClear.No wind86%30.12 "Hg10 mi
10:54 pm58 °FClear.No wind75%30.13 "Hg10 mi
9:54 pm63 °FClear.No wind63%30.13 "Hg10 mi
8:54 pm66 °FSunny.5 mph56%30.13 "Hg10 mi
7:54 pm71 °FSunny.6 mph47%30.13 "Hg10 mi
6:54 pm72 °FSunny.5 mph44%30.13 "Hg10 mi
5:54 pm73 °FSunny.8 mph44%30.15 "Hg10 mi
4:54 pm73 °FSunny.6 mph44%30.16 "Hg10 mi
3:54 pm72 °FSunny.6 mph46%30.17 "Hg10 mi
2:54 pm69 °FPassing clouds.N/A51%30.19 "Hg10 mi
1:54 pm68 °FPassing clouds.7 mph53%30.20 "Hg10 mi
12:54 pm67 °FPartly sunny.9 mph53%30.21 "Hg10 mi
11:54 am63 °FOvercast.7 mph63%30.21 "Hg10 mi
10:54 am61 °FOvercast.7 mph67%30.21 "Hg10 mi
9:54 am59 °FOvercast.5 mph67%30.20 "Hg10 mi
8:54 am58 °FOvercast.5 mph72%30.19 "Hg10 mi
Weather by CustomWeather, © 2020

See weather overview